Regional Weather Roundup
Issued by NWS Midland/Odessa, TX

Skip options and go directly to product.
Home | Oldest Version | Previous Version | Current Version | All | Text Only | Save Text | Print | Product List | Glossary Off

Skip product version selection by date and time.   

945
ASUS44 KMAF 051010
RWRMAF
MIDLAND AREA WEATHER ROUNDUP
NATIONAL WEATHER SERVICE MIDLAND TX
500 AM CDT SAT SEP 05 2015

...IN SOUTHWEST TEXAS AND SOUTHEAST NEW MEXICO...

CITY           SKY/WX    TMP DP  RH WIND       PRES   REMARKS
ALPINE         CLEAR     69  57  66 CALM      30.11S
ANDREWS        FAIR      69  57  64 S6        30.01R
ARTESIA        CLEAR     68  54  60 N7        30.02R
BIG SPRING     CLEAR     75  62  62 SE9       30.02R
CARLSBAD       CLEAR     70  50  49 S7        29.98R
DRYDEN           N/A     79  70  74 VRB5      29.93S
FORT STOCKTON  CLEAR     75  65  70 SE12      29.97S
GUAD PASS      CLEAR     69  52  54 NE18      30.13R
HOBBS            N/A     68  54  60 CALM      30.04R
MARFA          CLEAR     59  52  77 N7        30.10S
MIDLAND AIRPK  CLEAR     76  59  55 S8        30.00S
MIDLAND INTL   CLEAR     76  61  59 SE10      29.99S
ODESSA         CLEAR     77  59  53 S12       30.00R
PECOS          CLEAR     72  56  57 E6        29.95R
PRESIDIO       FAIR      81  58  45 MISG      29.94R
SEMINOLE       CLEAR     66  53  61 CALM      30.02S
SNYDER         CLEAR     75  62  63 S8        30.00R
WINK           CLEAR     76  58  53 SE9       29.96R
$$
...OTHER STATIONS IN TEXAS...

CITY           SKY/WX    TMP DP  RH WIND       PRES   REMARKS
ABILENE        CLEAR     77  68  73 S9        29.98R
AMARILLO       CLEAR     69  58  67 S8        30.04R
AUSTIN         CLOUDY    78  75  90 S6        29.98R
BROWNSVILLE    CLEAR     79  77  94 S5        29.92S
CORPUS CHRISTI PTCLDY    80  77  90 SE7       29.93S
DALLAS FTW     CLEAR     80  72  76 S7        29.96R
DEL RIO        CLEAR     81  72  74 E9        29.90S
EL PASO        MOCLDY    76  55  48 N9        30.00S
HOUSTON INT    PTCLDY    76  75  97 CALM      29.98R
LUBBOCK        PTCLDY    67  56  67 SE8       30.02R
SAN ANGELO     CLEAR     78  68  71 S9        29.97R
SAN ANTONIO    MOCLDY    81  74  79 S10       29.98R
WACO           CLEAR     79  73  82 S12       29.97R
WICHITA FALLS  NOT AVBL
$$
...OTHER LOCATIONS IN NEW MEXICO...

CITY           SKY/WX    TMP DP  RH WIND       PRES   REMARKS
ALAMAGORDO     CLOUDY    70  55  60 N3        30.04S
ALBUQUERQUE    CLOUDY    65  58  78 NW3       30.14S
CANNON AFB     CLEAR     66  53  64 S3        30.07R
CLOVIS         CLEAR     63  54  72 SE6       30.08S
HOLLOMAN AFB   CLOUDY    71  55  57 N6        30.02R
ROSWELL        CLEAR     69  56  62 N6        30.02R
RUIDOSO        MOCLDY    59  54  82 SW6       30.23F
SANTA FE       CLOUDY    58  54  86 CALM      30.19S
TRUTH OR CONSE FAIR      63  57  81 NW5       30.08R
TUCUMCARI      CLEAR     65  55  70 SW5       30.02F
$$

USA.gov is the U.S. government's official web portal to all federal, state and local government web resources and services.